This demonstration page uses our WeatherBlox Daily Observations layout. Learn more.

Hourly Observations for July 8, 2020

Temp ( °F °C ) Dew Point ( °F °C ) Humidity (%) Winds ( mph kmh ) Pressure ( in mb ) Visibility ( mi km ) Precip ( " mm )
12:15 am 00:15 Clear 72 22 72 22 100 100 Calm 30.02 1017 10 16.0934 0 0
12:35 am 00:35 Clear 70 21 70 21 100 100 Calm 30.02 1017 10 16.0934 0 0
12:55 am 00:55 Clear 70 21 70 21 100 100 Calm 30.02 1017 10 16.0934 0 0
1:15 am 01:15 Clear 70 21 70 21 100 100 Calm 30.01 1016 10 16.0934 0 0
1:35 am 01:35 Clear 68 20 68 20 100 100 Calm 30.01 1016 10 16.0934 0 0
1:55 am 01:55 Clear 68 20 68 20 100 100 Calm 30.01 1016 7 11.26538 0 0
2:15 am 02:15 Clear 68 20 68 20 100 100 Calm 30 1016 7 11.26538 0 0
2:35 am 02:35 Clear 68 20 68 20 100 100 Calm 30 1016 10 16.0934 0 0
2:55 am 02:55 Clear 68 20 68 20 100 100 Calm 30 1016 10 16.0934 0 0
3:15 am 03:15 Clear 70 21 70 21 100 100 SSE 3 6 30 1016 10 16.0934 0 0
3:35 am 03:35 Clear 70 21 70 21 100 100 S 3 6 29.99 1016 10 16.0934 0 0
3:55 am 03:55 Clear 68 20 68 20 100 100 SSE 3 6 29.99 1016 10 16.0934 0 0
4:15 am 04:15 Clear 68 20 68 20 100 100 Calm 29.99 1016 10 16.0934 0 0
4:35 am 04:35 Clear 68 20 68 20 100 100 Calm 30 1016 10 16.0934 0 0
4:55 am 04:55 Clear 66 19 66 19 100 100 Calm 30 1016 7 11.26538 0 0
5:15 am 05:15 Clear 66 19 66 19 100 100 Calm 30 1016 7 11.26538 0 0
5:35 am 05:35 Clear 64 18 64 18 100 100 Calm 30.01 1016 5 8.0467 0 0
5:55 am 05:55 Sunny 64 18 64 18 100 100 Calm 30.01 1016 4 6.43736 0 0
6:15 am 06:15 Sunny 64 18 64 18 100 100 Calm 30.01 1016 3 4.82802 0 0
6:35 am 06:35 Sunny 64 18 64 18 100 100 Calm 30.01 1016 3 4.82802 0 0
6:55 am 06:55 Sunny 64 18 64 18 100 100 Calm 30.02 1017 7 11.26538 0 0
7:15 am 07:15 Sunny 68 20 68 20 100 100 S 3 6 30.02 1017 10 16.0934 0 0
7:35 am 07:35 Sunny 68 20 68 20 100 100 Calm 30.02 1017 10 16.0934 0 0
7:55 am 07:55 Partly Cloudy 70 21 68 20 94 94 Calm 30.02 1017 10 16.0934 0 0
8:15 am 08:15 Partly Cloudy 70 21 68 20 94 94 W 3 6 30.03 1017 10 16.0934 0 0
8:35 am 08:35 Partly Cloudy 70 21 68 20 94 94 Calm 30.03 1017 10 16.0934 0 0
8:55 am 08:55 Sunny 72 22 68 20 88 88 Calm 30.03 1017 10 16.0934 0 0
9:15 am 09:15 Sunny 72 22 68 20 88 88 Calm 30.03 1017 10 16.0934 0 0
9:35 am 09:35 Sunny 73 23 70 21 89 89 Calm 30.03 1017 10 16.0934 0 0
9:55 am 09:55 Sunny 75 24 70 21 83 83 SE 3 6 30.03 1017 10 16.0934 0 0
10:15 am 10:15 Sunny 77 25 70 21 79 79 ESE 5 7 30.01 1016 10 16.0934 0 0
10:35 am 10:35 Sunny 79 26 70 21 74 74 Calm 30.01 1016 10 16.0934 0 0
10:55 am 10:55 Partly Cloudy 81 27 68 20 66 66 Calm 30.01 1016 10 16.0934 0 0
11:15 am 11:15 Partly Cloudy 82 28 70 21 66 66 SW 7 11 30.01 1016 10 16.0934 0 0
11:35 am 11:35 Mostly Cloudy 81 27 70 21 70 70 SW 6 9 30.01 1016 10 16.0934 0 0
11:55 am 11:55 Mostly Cloudy 82 28 68 20 62 62 SSW 8 13 30.01 1016 10 16.0934 0 0
12:15 pm 12:15 Mostly Cloudy 82 28 70 21 66 66 SSW 7 11 30 1016 10 16.0934 0 0
12:35 pm 12:35 Cloudy 82 28 70 21 66 66 SSW 6 9 30 1016 10 16.0934 0 0
12:55 pm 12:55 Mostly Cloudy 84 29 68 20 58 58 S 7 11 29.99 1016 10 16.0934 0 0
1:15 pm 13:15 Mostly Cloudy 86 30 70 21 59 59 SSW 5 7 29.98 1015 10 16.0934 0 0
1:35 pm 13:35 Mostly Cloudy 88 31 68 20 52 52 S 3 6 29.98 1015 10 16.0934 0 0
1:55 pm 13:55 Mostly Cloudy 86 30 70 21 59 59 SSW 6 9 29.96 1014 10 16.0934 0 0
2:15 pm 14:15 Partly Cloudy 88 31 68 20 52 52 S 7 11 29.96 1014 10 16.0934 0 0
2:35 pm 14:35 Partly Cloudy 88 31 68 20 52 52 S 6 9 29.96 1014 10 16.0934 0 0
2:55 pm 14:55 Partly Cloudy 90 32 66 19 46 46 SSW 6 9 29.95 1014 10 16.0934 0 0
3:15 pm 15:15 Partly Cloudy 90 32 68 20 49 49 S 9 15 29.94 1014 10 16.0934 0 0
3:35 pm 15:35 Partly Cloudy 90 32 68 20 49 49 SSW 7 11 29.93 1013 10 16.0934 0 0
3:55 pm 15:55 Sunny 90 32 64 18 43 43 SSE 6 9 29.93 1013 10 16.0934 0 0
4:15 pm 16:15 Sunny 90 32 66 19 46 46 S 3 6 29.93 1013 10 16.0934 0 0
4:35 pm 16:35 Partly Cloudy 90 32 66 19 46 46 S 7 11 29.92 1013 10 16.0934 0 0
4:55 pm 16:55 Partly Cloudy 90 32 64 18 43 43 SSE 5 7 29.92 1013 10 16.0934 0 0
5:15 pm 17:15 Partly Cloudy 90 32 66 19 46 46 SSE 7 11 29.91 1013 10 16.0934 0 0
5:35 pm 17:35 Partly Cloudy 90 32 64 18 43 43 SE 7 11 29.91 1013 10 16.0934 0 0
5:55 pm 17:55 Sunny 90 32 64 18 43 43 S 6 9 29.91 1013 10 16.0934 0 0
6:15 pm 18:15 Sunny 90 32 63 17 41 41 S 7 11 29.91 1013 10 16.0934 0 0
6:35 pm 18:35 Sunny 90 32 64 18 43 43 S 6 9 29.91 1013 10 16.0934 0 0
6:55 pm 18:55 Sunny 90 32 64 18 43 43 S 8 13 29.91 1013 10 16.0934 0 0
7:15 pm 19:15 Sunny 88 31 64 18 46 46 S 8 13 29.91 1013 10 16.0934 0 0
7:35 pm 19:35 Sunny 86 30 64 18 49 49 S 5 7 29.91 1013 10 16.0934 0 0
7:55 pm 19:55 Sunny 86 30 66 19 52 52 S 3 6 29.92 1013 10 16.0934 0 0
8:15 pm 20:15 Sunny 86 30 68 20 55 55 SSE 5 7 29.93 1013 10 16.0934 0 0
8:35 pm 20:35 Sunny 86 30 70 21 59 59 SSE 8 13 29.93 1013 10 16.0934 0 0
8:55 pm 20:55 Clear 82 28 70 21 66 66 SE 7 11 29.94 1014 10 16.0934 0 0
9:15 pm 21:15 Clear 82 28 68 20 62 62 SSE 8 13 29.94 1014 10 16.0934 0 0
9:35 pm 21:35 Clear 82 28 66 19 58 58 SSE 6 9 29.95 1014 10 16.0934 0 0
9:55 pm 21:55 Clear 82 28 66 19 58 58 S 5 7 29.95 1014 10 16.0934 0 0
10:15 pm 22:15 Clear 81 27 66 19 62 62 S 3 6 29.96 1015 10 16.0934 0 0
10:35 pm 22:35 Clear 81 27 66 19 62 62 SSE 5 7 29.96 1015 10 16.0934 0 0
10:55 pm 22:55 Clear 81 27 66 19 62 62 Calm 29.96 1015 10 16.0934 0 0
11:15 pm 23:15 Clear 79 26 66 19 65 65 S 3 6 29.95 1014 10 16.0934 0 0
11:35 pm 23:35 Clear 75 24 68 20 78 78 SSW 3 6 29.96 1014 10 16.0934 0 0
11:55 pm 23:55 Clear 77 25 68 20 74 74 SSW 3 6 29.95 1014 10 16.0934 0 0

Powered by AerisWeather